Home > Weather > Swanage > Past weeks

Flag for United Kingdom Past Weather in Swanage, England, United Kingdom — Yesterday and Last 2 Weeks

Now
68 °F

Broken clouds.


Feels Like: 68 °F
Forecast: 57 / 67 °F
Wind: 13 mph from West

Location: Bournemouth Airport

Current Time: Jul 27, 2016 at 12:34:25 PM

Latest Report: Jul 27, 2016 at 11:50 AM


Visibility: N/A

Pressure: 30.01 "Hg

Humidity: 83%

Dew Point: 63 °F

Location of SwanageLocation

Past Weather in Swanage — Graph

°F

Swanage Temperature Yesterday

Maximum temperature yesterday: 70 °F (at 3:50 PM)
Minimum temperature yesterday: 50 °F (at 5:50 AM)
Average temperature yesterday: 64 °F

High & Low Weather Summary for the Past Weeks

 TemperatureHumidityPressure
High88 °F (Jul 19, 2:20 PM)100% (Jul 17, 5:50 AM)30.36 "Hg (Jul 17, 5:50 AM)
Low50 °F (Jul 26, 5:50 AM)38% (Jul 20, 3:20 PM)29.71 "Hg (Jul 20, 6:20 AM)
Average67 °F73%30.11 "Hg
* Reported Jul 12 11:20 AM — Jul 27 11:20 AM, Swanage, Weather by CustomWeather, © 2016

Note: Actual official high and low records may vary slightly from our data, if they occured in-between our weather recording intervals... More about our weather records

Advertising

Swanage Weather History for the Previous 24 Hours

Scroll right to see more
 ConditionsComfort  
Time TempWeatherWind HumidityBarometerVisibility
11:20 AM
Wed, Jul 27
66 °FPartly sunny.12 mph83%30.01 "HgN/A
10:50 AM68 °FPartly sunny.12 mph83%30.01 "HgN/A
10:20 AM66 °FPartly sunny.10 mph88%30.01 "HgN/A
9:50 AM64 °FPartly sunny.9 mph88%30.01 "HgN/A
9:20 AM64 °FPartly sunny.12 mph88%30.01 "HgN/A
8:50 AM64 °FPartly sunny.13 mph88%30.01 "HgN/A
8:20 AM63 °FPartly sunny.10 mph94%30.01 "HgN/A
7:50 AM63 °FPartly sunny.12 mph94%30.01 "HgN/A
7:20 AM63 °FPartly sunny.13 mph94%30.01 "HgN/A
6:50 AM63 °FPartly sunny.9 mph94%30.01 "HgN/A
6:20 AM63 °FPassing clouds.9 mph94%30.01 "HgN/A
12:20 AM63 °FPassing clouds.8 mph88%30.09 "HgN/A
11:50 PM
Tue, Jul 26
63 °FPassing clouds.7 mph88%30.09 "HgN/A
11:20 PM63 °FPassing clouds.10 mph88%30.09 "HgN/A
10:50 PM63 °FPassing clouds.9 mph88%30.12 "HgN/A
10:20 PM63 °FPassing clouds.10 mph88%30.12 "HgN/A
9:50 PM63 °FPartly sunny.10 mph88%30.12 "HgN/A
9:20 PM63 °FPartly sunny.9 mph88%30.12 "HgN/A
8:50 PM64 °FScattered clouds.9 mph78%30.12 "HgN/A
8:20 PM64 °FPartly sunny.8 mph78%30.12 "HgN/A
7:50 PM64 °FPartly sunny.9 mph78%30.12 "HgN/A
7:20 PM64 °FPassing clouds.12 mph78%30.12 "HgN/A
6:50 PM66 °FPassing clouds.10 mph73%30.12 "HgN/A
6:20 PM66 °FScattered clouds.14 mph73%30.15 "HgN/A
5:50 PM68 °FScattered clouds.13 mph69%30.15 "HgN/A
5:20 PM70 °FScattered clouds.10 mph64%30.15 "HgN/A
4:50 PM70 °FScattered clouds.10 mph64%30.15 "HgN/A
4:20 PM68 °FBroken clouds.13 mph69%30.15 "HgN/A
3:50 PM70 °FBroken clouds.12 mph64%30.15 "HgN/A
3:20 PM68 °FBroken clouds.14 mph69%30.15 "HgN/A
2:50 PM68 °FBroken clouds.12 mph69%30.15 "HgN/A
2:20 PM68 °FBroken clouds.7 mph69%30.15 "HgN/A
1:50 PM68 °FPartly sunny.9 mph64%30.18 "HgN/A
1:20 PM68 °FScattered clouds.6 mph60%30.18 "HgN/A
12:50 PM68 °FScattered clouds.6 mph64%30.18 "HgN/A
12:20 PM66 °FScattered clouds.7 mph73%30.18 "HgN/A
Weather by CustomWeather, © 2016

See weather overviewHow to use our weather pages